User: anonymous   Login
Location: Cantaing
(50.1487°N, 3.1675°E)
Time: 15:00:24
(UTC+00:00)
Language:

Cosmos 2154 Rocket - Orbit

View from above orbital plane
View from above orbital plane
View from above satellite
View from above satellite

Ground track
Ground track

The orbit is defined by the following mean orbital elements,

1 21667U          26076.16683028 +.00000000 +00000-0 +40262-4 0 00008
2 21667  82.9082 149.6581 0020236 351.1172  69.5559 13.75281738    04
Epoch (UTC): 17 March 2026 04:00:14
Eccentricity: 0.0020236
inclination: 82.9082°
perigee height: 966 km
apogee height: 996 km
right ascension of ascending node: 149.6581°
argument of perigee: 351.1172°
revolutions per day: 13.75281738
mean anomaly at epoch: 69.5559°

The dashed part of the orbit path shows where the satellite is in the earth's shadow,  

DLR